This is the latest recevied weather packets stored in our database for station/object C31FR-13. If no packets are shown the sender has not sent any weather packets the latest 10 day(s).
| Time | Temp. | Humidity | Pressure | Rain* | Wind** | Luminosity | Snow |
|---|---|---|---|---|---|---|---|
| 1777940462 | 10.56° C | 84% | 1013 hPa | - | - | - | - |
| 1777940162 | 10.56° C | 84% | 1013 hPa | - | - | - | - |
| 1777939563 | 10° C | 86% | 1013 hPa | - | - | - | - |
| 1777939262 | 10° C | 87% | 1013 hPa | - | - | - | - |
| 1777937762 | 10.56° C | 87% | 1012.9 hPa | - | - | - | - |
| 1777934462 | 10.56° C | 83% | 1012.9 hPa | - | - | - | - |
| 1777932662 | 10.56° C | 80% | 1012.7 hPa | - | - | - | - |
| 1777931463 | 10.56° C | 85% | 1012.5 hPa | - | - | - | - |
| 1777930563 | 11.11° C | 83% | 1012.6 hPa | - | - | - | - |
| 1777929363 | 10.56° C | 85% | 1012.6 hPa | - | - | - | - |
| 1777928763 | 10.56° C | 86% | 1012.5 hPa | - | - | - | - |
| 1777927566 | 11.11° C | 83% | 1013.3 hPa | - | - | - | - |
| 1777925763 | 11.67° C | 94% | 1013.5 hPa | - | - | - | - |
| 1777920662 | 12.22° C | 87% | 1011.7 hPa | - | - | - | - |
| 1777919163 | 12.78° C | 93% | 1011.1 hPa | - | - | - | - |
| 1777918262 | 13.33° C | 90% | 1011.2 hPa | - | - | - | - |
| 1777917063 | 13.33° C | 93% | 1011.1 hPa | - | - | - | - |
| 1777913163 | 13.33° C | 98% | 1011.1 hPa | - | - | - | - |
| 1777910763 | 13.89° C | 88% | 1011.6 hPa | - | - | - | - |
| 1777909263 | 13.33° C | 94% | 1011.5 hPa | - | - | - | - |
| 1777908364 | 13.33° C | 93% | 1011.5 hPa | - | - | - | - |
| 1777906563 | 13.89° C | 93% | 1011.9 hPa | - | - | - | - |
| 1777905363 | 14.44° C | 83% | 1011.8 hPa | - | - | - | - |
| 1777905063 | 14.44° C | 85% | 1011.7 hPa | - | - | - | - |
| 1777904163 | 14.44° C | 89% | 1011.5 hPa | - | - | - | - |
* Rain since midnight (hover to see other rain measurements)
** Current wind speed in m/s (hover to see current wind gust speed)